| time (UTC) | temp F | wind direction | speed MPH | gust MPH | rain 1hr in | rain 24hr in | rain mn in | humidity % | barometer mb |
| 20260509011534 | 64 | 258 | 10.0 | 19.0 | 0.00 | 0.00 | 0.00 | 84 | 1012.8 |
| 20260509010032 | 64 | 225 | 10.0 | 18.0 | 0.00 | 0.00 | 0.00 | 83 | 1012.7 |
| 20260509004546 | 64 | 239 | 10.0 | 17.0 | 0.00 | 0.00 | 0.00 | 83 | 1012.8 |
| 20260509003034 | 64 | 269 | 10.0 | 18.0 | 0.00 | 0.00 | 0.00 | 82 | 1012.9 |
| 20260509001530 | 64 | 224 | 11.0 | 17.0 | 0.00 | 0.00 | 0.00 | 81 | 1013.0 |
| 20260509000025 | 65 | 198 | 9.0 | 16.0 | 0.00 | 0.00 | 0.00 | 81 | 1013.1 |
| 20260508234525 | 65 | 200 | 10.0 | 16.0 | 0.00 | 0.00 | 0.00 | 80 | 1013.1 |
| 20260508233023 | 64 | 219 | 11.0 | 19.0 | 0.00 | 0.00 | 0.00 | 81 | 1013.1 |
| 20260508231520 | 65 | 207 | 11.0 | 16.0 | 0.00 | 0.00 | 0.00 | 80 | 1013.2 |
| 20260508230017 | 66 | 221 | 6.0 | 15.0 | 0.00 | 0.00 | 0.00 | 80 | 1013.5 |
| 20260508224515 | 66 | 232 | 6.0 | 13.0 | 0.00 | 0.00 | 0.00 | 79 | 1013.7 |
| 20260508223034 | 66 | 208 | 5.0 | 10.0 | 0.00 | 0.00 | 0.00 | 80 | 1013.9 |
| 20260508221509 | 66 | 205 | 5.0 | 9.0 | 0.00 | 0.00 | 0.00 | 78 | 1014.2 |
| 20260508220007 | 66 | 191 | 5.0 | 10.0 | 0.00 | 0.00 | 0.00 | 79 | 1014.5 |
| 20260508214504 | 66 | 175 | 5.0 | 10.0 | 0.00 | 0.00 | 0.00 | 78 | 1014.6 |
| 20260508213008 | 65 | 224 | 7.0 | 12.0 | 0.00 | 0.00 | 0.00 | 78 | 1014.8 |
| 20260508211603 | 65 | 161 | 7.0 | 11.0 | 0.00 | 0.00 | 0.00 | 79 | 1015.0 |
| 20260508210101 | 66 | 197 | 4.0 | 8.0 | 0.00 | 0.00 | 0.00 | 78 | 1015.1 |
| 20260508204557 | 66 | 216 | 4.0 | 9.0 | 0.00 | 0.00 | 0.00 | 79 | 1015.2 |
| 20260508203103 | 65 | 166 | 6.0 | 9.0 | 0.00 | 0.00 | 0.00 | 81 | 1015.3 |
| 20260508201559 | 65 | 153 | 5.0 | 9.0 | 0.00 | 0.00 | 0.00 | 81 | 1015.4 |
| 20260508200052 | 65 | 171 | 6.0 | 8.0 | 0.00 | 0.00 | 0.00 | 81 | 1015.5 |
| 20260508194551 | 65 | 181 | 5.0 | 8.0 | 0.00 | 0.00 | 0.00 | 81 | 1015.7 |
| 20260508193049 | 64 | 155 | 5.0 | 6.0 | 0.00 | 0.00 | 0.00 | 83 | 1015.7 |
| 20260508191549 | 64 | 142 | 4.0 | 6.0 | 0.00 | 0.00 | 0.00 | 83 | 1016.0 |
| 20260508190046 | 63 | 155 | 4.0 | 6.0 | 0.00 | 0.00 | 0.00 | 83 | 1016.1 |
| 20260508184546 | 64 | 137 | 3.0 | 5.0 | 0.00 | 0.00 | 0.00 | 83 | 1016.2 |
| 20260508183045 | 63 | 158 | 4.0 | 6.0 | 0.00 | 0.00 | 0.00 | 83 | 1016.3 |
| 20260508181542 | 64 | 166 | 2.0 | 5.0 | 0.00 | 0.00 | 0.00 | 83 | 1016.4 |
| 20260508180040 | 64 | 186 | 2.0 | 5.0 | 0.00 | 0.00 | 0.00 | 83 | 1016.4 |
| 20260508174538 | 63 | 217 | 1.0 | 3.0 | 0.00 | 0.00 | 0.00 | 83 | 1016.4 |
| 20260508173035 | 63 | 204 | 1.0 | 2.0 | 0.00 | 0.00 | 0.00 | 85 | 1016.5 |
| 20260508171534 | 63 | 155 | 1.0 | 3.0 | 0.00 | 0.00 | 0.00 | 86 | 1016.6 |
| 20260508170031 | 62 | 173 | 2.0 | 4.0 | 0.00 | 0.00 | 0.00 | 86 | 1016.5 |
| 20260508164530 | 62 | 140 | 1.0 | 3.0 | 0.00 | 0.00 | 0.00 | 86 | 1016.4 |
| 20260508163034 | 62 | 114 | 3.0 | 7.0 | 0.00 | 0.00 | 0.00 | 85 | 1016.4 |
| 20260508161627 | 62 | 105 | 2.0 | 5.0 | 0.00 | 0.00 | 0.00 | 85 | 1016.4 |
| 20260508160026 | 62 | 88 | 2.0 | 5.0 | 0.00 | 0.00 | 0.00 | 86 | 1016.4 |
| 20260508154524 | 61 | 88 | 2.0 | 7.0 | 0.00 | 0.00 | 0.00 | 87 | 1016.3 |
| 20260508153022 | 61 | 70 | 3.0 | 7.0 | 0.00 | 0.00 | 0.00 | 88 | 1016.3 |
| 20260508151521 | 61 | 76 | 3.0 | 7.0 | 0.00 | 0.00 | 0.00 | 88 | 1016.4 |
| 20260508150040 | 61 | 80 | 3.0 | 6.0 | 0.00 | 0.00 | 0.00 | 89 | 1016.5 |
| 20260508144517 | 61 | 61 | 2.0 | 4.0 | 0.00 | 0.00 | 0.00 | 89 | 1016.4 |
| 20260508143017 | 60 | 70 | 2.0 | 3.0 | 0.00 | 0.00 | 0.00 | 90 | 1016.4 |
| 20260508141519 | 60 | 81 | 1.0 | 4.0 | 0.00 | 0.00 | 0.00 | 90 | 1016.3 |
| 20260508140022 | 60 | 80 | 1.0 | 5.0 | 0.00 | 0.00 | 0.00 | 90 | 1016.2 |
| 20260508134510 | 60 | 130 | 1.0 | 6.0 | 0.00 | 0.00 | 0.00 | 90 | 1016.1 |
| 20260508133011 | 60 | 121 | 3.0 | 4.0 | 0.00 | 0.00 | 0.00 | 91 | 1016.1 |
| 20260508131509 | 60 | 105 | 1.0 | 4.0 | 0.00 | 0.00 | 0.00 | 91 | 1016.0 |
| 20260508130008 | 60 | 108 | 2.0 | 4.0 | 0.00 | 0.00 | 0.00 | 91 | 1015.8 |
| 20260508124508 | 60 | 122 | 3.0 | 6.0 | 0.00 | 0.00 | 0.00 | 92 | 1015.7 |
| 20260508123008 | 59 | 93 | 2.0 | 8.0 | 0.00 | 0.00 | 0.00 | 92 | 1015.6 |
| 20260508121507 | 59 | 90 | 6.0 | 10.0 | 0.00 | 0.00 | 0.00 | 92 | 1015.5 |
| 20260508120006 | 60 | 121 | 3.0 | 9.0 | 0.00 | 0.00 | 0.00 | 93 | 1015.6 |
| 20260508114502 | 60 | 101 | 5.0 | 9.0 | 0.00 | 0.00 | 0.00 | 93 | 1015.4 |
| 20260508113004 | 60 | 105 | 4.0 | 7.0 | 0.00 | 0.00 | 0.00 | 93 | 1015.4 |
| 20260508111606 | 60 | 109 | 2.0 | 5.0 | 0.00 | 0.00 | 0.00 | 93 | 1015.3 |
| 20260508110110 | 60 | 109 | 1.0 | 4.0 | 0.00 | 0.00 | 0.00 | 92 | 1015.3 |
| 20260508104612 | 60 | 90 | 1.0 | 5.0 | 0.00 | 0.00 | 0.00 | 91 | 1015.4 |
| 20260508103101 | 60 | 86 | 2.0 | 7.0 | 0.00 | 0.00 | 0.00 | 91 | 1015.3 |
| 20260508101556 | 60 | 194 | 4.0 | 9.0 | 0.00 | 0.00 | 0.00 | 90 | 1015.4 |
| 20260508100056 | 60 | 94 | 1.0 | 3.0 | 0.00 | 0.00 | 0.00 | 89 | 1015.5 |
| 20260508094554 | 60 | 105 | 0.0 | 7.0 | 0.00 | 0.00 | 0.00 | 89 | 1015.4 |
| 20260508093054 | 60 | 113 | 1.0 | 6.0 | 0.00 | 0.00 | 0.00 | 88 | 1015.5 |
| 20260508091606 | 60 | 81 | 2.0 | 5.0 | 0.00 | 0.00 | 0.00 | 88 | 1015.6 |
| 20260508090050 | 60 | 155 | 2.0 | 7.0 | 0.00 | 0.00 | 0.00 | 88 | 1015.7 |
| 20260508084556 | 60 | 134 | 1.0 | 3.0 | 0.00 | 0.00 | 0.00 | 89 | 1015.8 |
| 20260508083054 | 60 | 90 | 1.0 | 2.0 | 0.00 | 0.00 | 0.00 | 89 | 1015.8 |
| 20260508081548 | 60 | 128 | 1.0 | 0.0 | 0.00 | 0.00 | 0.00 | 89 | 1015.9 |
| 20260508074542 | 60 | 184 | 0.0 | 2.0 | 0.00 | 0.00 | 0.00 | 90 | 1016.1 |
| 20260508073049 | 60 | 258 | 2.0 | 4.0 | 0.00 | 0.00 | 0.00 | 90 | 1016.1 |
| 20260508071534 | 60 | 242 | 3.0 | 4.0 | 0.00 | 0.00 | 0.00 | 90 | 1016.1 |
| 20260508070030 | 60 | 200 | 2.0 | 5.0 | 0.00 | 0.00 | 0.00 | 90 | 1016.1 |
| 20260508064540 | 60 | 214 | 3.0 | 5.0 | 0.00 | 0.00 | 0.00 | 90 | 1016.0 |
| 20260508063029 | 60 | 183 | 3.0 | 6.0 | 0.00 | 0.00 | 0.00 | 90 | 1015.9 |
| 20260508061532 | 60 | 206 | 2.0 | 7.0 | 0.00 | 0.00 | 0.00 | 90 | 1015.8 |
| 20260508060130 | 60 | 211 | 4.0 | 8.0 | 0.00 | 0.00 | 0.00 | 89 | 1015.9 |
| 20260508054539 | 60 | 236 | 5.0 | 10.0 | 0.00 | 0.00 | 0.00 | 89 | 1015.9 |
| 20260508053026 | 60 | 192 | 6.0 | 10.0 | 0.00 | 0.00 | 0.00 | 89 | 1015.8 |
| 20260508051530 | 60 | 241 | 5.0 | 9.0 | 0.00 | 0.00 | 0.00 | 89 | 1015.8 |
| 20260508050024 | 60 | 210 | 7.0 | 11.0 | 0.00 | 0.00 | 0.00 | 89 | 1015.6 |
| 20260508044524 | 60 | 244 | 6.0 | 12.0 | 0.00 | 0.00 | 0.00 | 90 | 1015.7 |
| 20260508043024 | 61 | 252 | 10.0 | 13.0 | 0.00 | 0.00 | 0.00 | 90 | 1015.5 |
| 20260508041522 | 61 | 211 | 4.0 | 10.0 | 0.00 | 0.00 | 0.00 | 89 | 1015.3 |
| 20260508040038 | 61 | 223 | 8.0 | 12.0 | 0.00 | 0.00 | 0.00 | 88 | 1015.0 |
| 20260508034529 | 61 | 236 | 8.0 | 12.0 | 0.00 | 0.00 | 0.00 | 88 | 1014.8 |
| 20260508033021 | 61 | 233 | 7.0 | 11.0 | 0.00 | 0.00 | 0.00 | 87 | 1014.6 |
| 20260508031522 | 61 | 267 | 8.0 | 13.0 | 0.00 | 0.00 | 0.00 | 86 | 1014.3 |
| 20260508030022 | 61 | 241 | 8.0 | 14.0 | 0.00 | 0.00 | 0.00 | 87 | 1014.1 |
| 20260508024524 | 61 | 255 | 10.0 | 16.0 | 0.00 | 0.00 | 0.00 | 87 | 1013.9 |
| 20260508023019 | 61 | 242 | 11.0 | 16.0 | 0.00 | 0.00 | 0.00 | 86 | 1013.8 |
| 20260508021518 | 62 | 262 | 11.0 | 17.0 | 0.00 | 0.00 | 0.00 | 86 | 1013.6 |
| 20260508020017 | 62 | 227 | 12.0 | 18.0 | 0.00 | 0.00 | 0.00 | 85 | 1013.6 |
| 20260508014516 | 62 | 234 | 11.0 | 19.0 | 0.00 | 0.00 | 0.00 | 85 | 1013.5 |
| 20260508013015 | 63 | 252 | 10.0 | 17.0 | 0.00 | 0.00 | 0.00 | 84 | 1013.4 |